Tracking 27111 objects as of 28-Mar-2023
HD Live streaming from Space Station
objects crossing your sky now

ARIANE 5 R/B

Track ARIANE 5 R/B now!


NORAD ID: 39080
Int'l Code: 2013-006C
Perigee: 290.4 km
Apogee: 34,327.4 km
Inclination: 6.0 °
Period: 604.4 minutes
Semi major axis: 23679 km
RCS: 25.327 m2 (large)
Launch date: February 7, 2013
Source: France (FR)
Launch site: FRENCH GUIANA (FRGUI)

Note: This is a ROCKET BODY
Your satellite tracking list
Your tracking list is empty




NASA's NSSDC Master Catalog

Two Line Element Set (TLE):
1 39080U 13006C   23086.64295413  .00003080  00000-0  15995-2 0  9995
2 39080   6.0171 148.7464 7186908  49.3607 353.7574  2.38249970 86371
Source of the keplerian elements: AFSPC